Location: Caltech
(34.1382°N, 118.1253°W)
Time: 21:46:41
(UTC-07:00)

Transit 2A - Visible Passes

Search period start: 21 April 2018 00:00
Search period end: 01 May 2018 00:00
Orbit: 598 x 962 km, 66.7° (Epoch: 21 April)

Date Brightness Start Highest point End Pass type
(mag) Time Alt. Az. Time Alt. Az. Time Alt. Az.
25 Apr 8.6 05:40:34 10° SSE 05:45:26 25° ESE 05:50:04 10° NE visible
26 Apr 8.9 05:07:53 10° SE 05:11:31 16° ESE 05:15:03 10° ENE visible
27 Apr 9.3 04:37:26 10° ESE 04:37:41 10° ESE 04:37:56 10° E visible
29 Apr 7.6 05:06:33 10° S 05:12:13 39° ESE 05:17:33 10° NE visible
30 Apr 8.2 04:33:14 10° SSE 04:38:16 27° ESE 04:43:02 10° NE visible
